レオナード彗星

P/2018 VN2 ( Leonard )

English version
Home page
Updated on May 20, 2019

---------------------------------------------------------------------

・ プロフィール

発見日 2018年11月5日
発見光度 19.0等
発見者 G. J. Leonard (Mount Lemmon)

・ 写真集

・ 軌道要素

Epoch 2018 June 11.0 TT = JDT 2458280.5
T 2018 June 5.29676 TT                                  MPCW
q   2.1227238            (2000.0)            P               Q
n   0.12027628     Peri.  138.74867     +0.97164100     -0.06498528
a   4.0645836      Node   226.55526     +0.02360196     +0.98334610
e   0.4777512      Incl.   18.24892     +0.23528009     +0.16972734
P   8.19
From 79 observations 2018 Nov. 5-Dec. 13, mean residual 0".6.

・ 光度変化

        m1 = 14.5 + 5 logΔ + 10.0 log r

---------------------------------------------------------------------

軌道要素はM.P.E.C. 2019-J142に掲載されたものです。
光度グラフはComet for Windowsで作成したものです。

---------------------------------------------------------------------

Copyright(C) Seiichi Yoshida (comet@aerith.net). All rights reserved.